SeaSat 1 - Orbit

View from above orbital plane
View from above orbital plane
View from above satellite
View from above satellite

Ground track
Ground track

The orbit data is extracted from the following two-line orbital elements,

1 10967U 78064A   13142.90958282  .00000272  00000-0  12244-3 0   136
2 10967 107.9926 077.3517 0002593 298.6217 108.0044 14.42706009832185
Epoch (UTC): 22 May 2013 21:49:47
Eccentricity: 0.0002593
inclination: 107.9926°
perigee height: 748 km
apogee height: 751 km
right ascension of ascending node: 77.3517°
argument of perigee: 298.6217°
revolutions per day: 14.42706009
mean anomaly at epoch: 108.0044°
orbit number at epoch: 83218

The dashed part of the orbit path shows where the satellite is in the earth's shadow,  

Developed and maintained by Chris Peat, Heavens-Above GmbH. Please read the updated FAQ before sending e-mail. Imprint. DLR